[[{"header":{"parameterUnit":"m.s-1","parameterCategory":2,"la1":30.2991,"la2":30.254,"lo1":-89.0895,"lo2":-89.0444,"dy":0.0017,"dx":0.0017,"nx":28,"ny":28,"refTime":"2024-10-19T03:00:00:Z","depth":"0","parameterNumber":2,"parameterNumberName":"U-component_of_CURRENTS"},"data":[0,0,0,0,0,0,0,0,0,0,0,0,0,0,0,0,0,0,0,0,0,0,0,0,0,0,0,0,0,0,0,0,0,0,0,0,0,0,0,0,0,0,0,0,0,0,0,0,0,0,0,0,0,0,0,0,0,0,0.3273,0.3273,0,0.3246,0.3246,0.3246,0.3219,0.3219,0.3218,0.3218,0.3203,0.3202,0.3202,0,0,0,0,0,0,0,0,0,0,0,0,0,0.3389,0.3387,0.3273,0.3273,0.3273,0.3247,0.3246,0.3246,0.3219,0.3219,0.3218,0.3218,0.3203,0.3202,0.3202,0,0,0,0,0,0,0,0,0,0,0,0,0,0.3347,0.3386,0.3273,0.3257,0.3255,0.3247,0.3246,0.3245,0.3219,0.3219,0.3218,0.3218,0.3203,0.3202,0.3202,0.3209,0,0,0.3202,0.3201,0,0,0,0,0,0,0,0,0.335,0.3343,0.326,0.3258,0.3256,0.3236,0.3281,0.3234,0.3219,0.3232,0.3218,0.3218,0.3216,0.3214,0.3209,0.3209,0.3208,0.3201,0.3201,0.3201,0.3201,0,0,0,0,0,0,0,0.3352,0.3345,0.3262,0.3259,0.3257,0.3281,0.3274,0.3273,0.3226,0.3231,0.3229,0.3227,0.3215,0.3209,0.3208,0.3208,0.3202,0.3201,0.3201,0.3201,0.3244,0.3245,0,0,0,0,0,0,0.3353,0.3346,0.3263,0.3261,0.3304,0.3279,0.3271,0.3242,0.3226,0.3223,0.3228,0.3226,0.321,0.3209,0.3208,0.3236,0.3201,0.3201,0.3201,0.3242,0.3244,0.3245,0,0,0,0,0,0,0.3355,0.3344,0.3264,0.3306,0.3297,0.3277,0.3246,0.3242,0.324,0.3224,0.3221,0.323,0.3209,0.3208,0.3216,0.3235,0.3201,0.3201,0.3241,0.3243,0.3245,0.328,0,0,0,0,0,0,0.3358,0.3345,0.3331,0.3305,0.3295,0.3266,0.3246,0.3242,0.324,0.3237,0.3224,0.3222,0.3209,0.3217,0.3216,0.3234,0.3201,0.3239,0.3242,0.3244,0.3277,0.3283,0.3288,0,0,0,0,0,0.3362,0.3342,0.333,0.332,0.3273,0.3267,0.3264,0.3249,0.324,0.3244,0.3237,0.3223,0.3231,0.3217,0.3216,0.3234,0.3238,0.3241,0.3244,0.3275,0.3282,0.3288,0,0,0,0,0,0,0.3388,0.3336,0.3323,0.3288,0.3283,0.3263,0.3264,0.3255,0.3252,0.3252,0.3234,0.3232,0.325,0.324,0.3225,0.3256,0.3235,0.3237,0.3259,0.3265,0.327,0.3291,0.32,0,0,0,0,0,0.3387,0.3356,0.3327,0.3306,0.3301,0.3286,0.3283,0.3275,0.3266,0.3264,0.3254,0.3252,0.3261,0.326,0.3265,0.3276,0.329,0.329,0.3295,0.33,0.3317,0.3355,0.3366,0.3255,0.3254,0.3254,0,0,0.3397,0.3363,0.3349,0.3311,0.3303,0.33,0.3282,0.3282,0.3287,0.3264,0.327,0.3272,0.3271,0.3287,0.3294,0.3278,0.3339,0.3303,0.3307,0.3323,0.3359,0.337,0.338,0.3256,0.3256,0.3256,0,0,0.34,0.3368,0.3344,0.334,0.3326,0.3321,0.3323,0.3307,0.3308,0.3313,0.3308,0.3326,0.3318,0.3332,0.3335,0.3375,0.3371,0.3372,0.3407,0.3443,0.3453,0.3461,0.3494,0.3505,0.3368,0.3368,0.3368,0,0.3413,0.3369,0.3347,0.3332,0.3332,0.333,0.3327,0.3334,0.3327,0.3336,0.3321,0.3348,0.3345,0.3383,0.3397,0.3388,0.3405,0.3379,0.345,0.3459,0.3467,0.3498,0.351,0.337,0.337,0.3369,0.3369,0,0.3399,0.3374,0.3369,0.3341,0.3347,0.3347,0.3353,0.3365,0.3365,0.337,0.3405,0.3409,0.3425,0.343,0.3423,0.3483,0.3476,0.3457,0.3433,0.3481,0.351,0.3522,0.3373,0.3372,0.3371,0.3371,0,0,0.3385,0.3359,0.3356,0.3344,0.3349,0.3347,0.3377,0.3394,0.3424,0.3427,0.3464,0.3486,0.3495,0.3503,0.3505,0.3539,0.3608,0.3524,0.3525,0.3555,0.3692,0.3648,0.3656,0.3597,0.36,0.3602,0.3689,0,0.3376,0.3344,0.3344,0.3341,0.3325,0.3351,0.3381,0.3408,0.3442,0.3483,0.3507,0.3548,0.352,0.3543,0.3571,0.361,0.3642,0.3587,0.3644,0.3646,0.3599,0.367,0.3526,0.3589,0.37,0.3702,0.3704,0,0.3344,0.3327,0.331,0.332,0.3321,0.3335,0.3388,0.342,0.3496,0.353,0.3579,0.3604,0.3667,0.3635,0.3714,0.368,0.3693,0.3713,0.3716,0.3675,0.3625,0.356,0.3606,0.3516,0.3722,0.372,0.3719,0,0.3305,0.3299,0.3281,0.3282,0.3303,0.3318,0.3349,0.3426,0.3473,0.3575,0.3621,0.3689,0.3733,0.3767,0.3798,0.3765,0.3887,0.3839,0.3811,0.3808,0.3699,0.3682,0.3662,0.3897,0.3897,0.3897,0.3897,0,0.3263,0.3245,0.326,0.3243,0.3256,0.3292,0.3338,0.3397,0.3501,0.3559,0.3639,0.37,0.377,0.3833,0.3843,0.3874,0.3917,0.3846,0.3838,0.3706,0.369,0.3615,0.3571,0.39,0.3899,0.3899,0.3898,0,0.3193,0.3202,0.318,0.3208,0.3222,0.3232,0.3315,0.3357,0.3473,0.3558,0.3594,0.3733,0.3821,0.3881,0.3966,0.3931,0.3858,0.3963,0.3807,0.3778,0.3637,0.36,0.3469,0.3358,0.3944,0.3944,0.3943,0,0.314,0.3118,0.3142,0.3139,0.3145,0.3176,0.3202,0.3324,0.3383,0.3559,0.3591,0.3733,0.381,0.3936,0.3938,0.3974,0.3842,0.3834,0.374,0.3636,0.359,0.3446,0.3351,0.3612,0.3609,0.3606,0.3604,0,0.3043,0.3059,0.3049,0.3053,0.3066,0.3088,0.3142,0.3187,0.3329,0.3413,0.3535,0.3628,0.3782,0.3778,0.385,0.384,0.3641,0.3783,0.3713,0.3373,0.3176,0.3063,0.3553,0.3582,0.3584,0.3586,0.3587,0.3588,0.297,0.2952,0.2952,0.2947,0.2964,0.2971,0.2955,0.3037,0.3107,0.32,0.3378,0.3451,0.3575,0.3669,0.3648,0.3528,0.3504,0.3396,0.3377,0.3255,0.3085,0.3535,0.3527,0.3529,0.353,0.3532,0.3533,0,0.2857,0.285,0.2844,0.2824,0.2793,0.285,0.2882,0.2849,0.2863,0.3012,0.3102,0.3193,0.3229,0.3303,0.3283,0.3147,0.299,0.3042,0.2805,0.2744,0.3187,0.3111,0.2965,0.2965,0.2965,0.2965,0.2965,0.2965,0.2794,0.2741,0.2739,0.2648,0.2636,0.2556,0.2543,0.2531,0.2596,0.263,0.268,0.2795,0.3005,0.3066,0.2956,0.2872,0.2624,0.2493,0.2489,0.2816,0.2846,0.2875,0.2794,0.2584,0.2583,0.1915,0.191,0.1906]},{"header":{"parameterUnit":"m.s-1","parameterCategory":2,"la1":30.2991,"la2":30.254,"lo1":-89.0895,"lo2":-89.0444,"dy":0.0017,"dx":0.0017,"nx":28,"ny":28,"refTime":"2024-10-19T03:00:00:Z","depth":"0","parameterNumber":3,"parameterNumberName":"V-component_of_CURRENTS"},"data":[0,0,0,0,0,0,0,0,0,0,0,0,0,0,0,0,0,0,0,0,0,0,0,0,0,0,0,0,0,0,0,0,0,0,0,0,0,0,0,0,0,0,0,0,0,0,0,0,0,0,0,0,0,0,0,0,0,0,0.0029,0.0029,0,-0.0026,-0.0026,-0.0027,-0.0072,-0.0072,-0.0072,-0.0073,-0.0165,-0.0168,-0.017,0,0,0,0,0,0,0,0,0,0,0,0,0,-0.0015,-0.0013,0.0029,0.0029,0.0029,-0.0025,-0.0026,-0.0028,-0.0072,-0.0072,-0.0073,-0.0073,-0.0165,-0.0167,-0.017,0,0,0,0,0,0,0,0,0,0,0,0,0,-0.0028,-0.0013,0.003,0.0003,-0.0,-0.0025,-0.0027,-0.0028,-0.0072,-0.0072,-0.0073,-0.0073,-0.0164,-0.0167,-0.0171,-0.0188,0,0,-0.0181,-0.0183,0,0,0,0,0,0,0,0,-0.0027,-0.0027,0.0007,0.0004,0.0001,-0.0039,-0.0076,-0.0082,-0.0072,-0.0049,-0.0073,-0.0073,-0.0124,-0.0131,-0.0145,-0.0193,-0.0197,-0.0182,-0.0184,-0.0185,-0.0186,0,0,0,0,0,0,0,-0.0026,-0.0025,0.0004,0.0007,0.0003,-0.0044,-0.0046,-0.0078,-0.0088,-0.0051,-0.0053,-0.0054,-0.0127,-0.0142,-0.0148,-0.0198,-0.0182,-0.0185,-0.0187,-0.0188,-0.0256,-0.0256,0,0,0,0,0,0,-0.0006,-0.0023,0.0006,0.0003,-0.001,-0.0043,-0.0045,-0.0029,-0.0087,-0.0095,-0.0053,-0.0055,-0.0136,-0.0144,-0.0151,-0.0158,-0.0185,-0.0189,-0.0191,-0.0256,-0.0256,-0.0256,0,0,0,0,0,0,-0.0006,-0.0002,0.0008,-0.001,-0.0012,-0.004,-0.0023,-0.003,-0.0041,-0.0088,-0.0097,-0.0057,-0.0136,-0.0147,-0.0173,-0.0163,-0.019,-0.0193,-0.0257,-0.0256,-0.0256,-0.0183,0,0,0,0,0,0,-0.0007,-0.0001,0.0011,-0.0008,-0.001,0.0002,-0.0023,-0.003,-0.0039,-0.0043,-0.0094,-0.0103,-0.0137,-0.0167,-0.0176,-0.0168,-0.0196,-0.0257,-0.0257,-0.0256,-0.0186,-0.018,-0.0175,0,0,0,0,0,-0.0008,0.0013,0.0012,0.0015,0.0011,0.0003,-0.0003,-0.0028,-0.0039,-0.004,-0.0074,-0.0101,-0.017,-0.017,-0.0181,-0.0173,-0.0257,-0.0257,-0.0256,-0.0188,-0.0181,-0.0176,0,0,0,0,0,0,-0.001,0.001,0.0008,0.0032,0.0023,-0.0003,-0.0006,-0.0021,-0.0049,-0.0051,-0.0099,-0.0111,-0.0131,-0.0162,-0.016,-0.0191,-0.0218,-0.0219,-0.0163,-0.0157,-0.0152,-0.0128,-0.0199,0,0,0,0,0,0.0,0.0027,0.0026,0.0041,0.0043,0.002,0.0012,0.0001,-0.0023,-0.0036,-0.007,-0.0106,-0.0137,-0.0153,-0.0187,-0.0203,-0.0229,-0.0206,-0.02,-0.0196,-0.0184,-0.0216,-0.0212,-0.0253,-0.0253,-0.0253,0,0,-0.0001,0.0016,0.0027,0.0043,0.0033,0.0046,0.0014,0.0014,0.0018,-0.0041,-0.0051,-0.0091,-0.0138,-0.0157,-0.0168,-0.018,-0.0197,-0.0195,-0.019,-0.0181,-0.0215,-0.0211,-0.0207,-0.0253,-0.0253,-0.0253,0,0,0.002,0.0032,0.0064,0.0066,0.0072,0.0063,0.0069,0.0052,0.0039,0.0025,-0.0014,-0.0043,-0.0093,-0.012,-0.0142,-0.0128,-0.0169,-0.0141,-0.0095,-0.0125,-0.0122,-0.0119,-0.0142,-0.0142,-0.0137,-0.0137,-0.0137,0,0.0018,0.0068,0.0065,0.0095,0.0105,0.0078,0.0107,0.0089,0.0063,0.006,0.0033,-0.003,-0.0073,-0.009,-0.0087,-0.0114,-0.0137,-0.0113,-0.0117,-0.0115,-0.0114,-0.0138,-0.0139,-0.0133,-0.0134,-0.0134,-0.0134,0,0.0069,0.0102,0.0118,0.0159,0.0162,0.0181,0.017,0.0165,0.0145,0.0128,0.0104,0.0042,0.001,-0.0014,-0.0049,-0.0057,-0.0078,-0.0107,-0.0129,-0.0105,-0.0133,-0.0135,-0.0128,-0.0129,-0.0131,-0.0131,0,0,0.0092,0.0148,0.0154,0.0188,0.0204,0.0217,0.0226,0.0234,0.0253,0.0202,0.0214,0.0144,0.0113,0.0086,0.0036,0.0003,-0.0013,-0.0042,-0.0045,-0.0056,-0.0074,-0.0079,-0.0082,-0.0044,-0.0044,-0.0044,-0.0096,0,0.0137,0.0215,0.0225,0.0284,0.0325,0.0309,0.0322,0.0319,0.0307,0.0307,0.0238,0.0222,0.015,0.0137,0.0094,0.0019,-0.0016,0.0005,-0.0103,-0.0106,-0.0107,-0.0084,-0.0043,-0.0085,-0.0098,-0.0099,-0.0099,0,0.0196,0.0244,0.0317,0.0372,0.0387,0.0406,0.0442,0.0454,0.044,0.0429,0.0398,0.0342,0.029,0.0221,0.0107,0.0124,0.0035,-0.0034,-0.0039,-0.0068,-0.0115,-0.0113,-0.0089,-0.0219,-0.0103,-0.0103,-0.0102,0,0.0242,0.0312,0.0378,0.0396,0.0443,0.0464,0.0484,0.0491,0.0528,0.0511,0.0529,0.0447,0.0422,0.0296,0.015,0.0129,0.0024,-0.0026,-0.0115,-0.0117,-0.0114,-0.0115,-0.0219,-0.0109,-0.0108,-0.0108,-0.0108,0,0.0304,0.0356,0.0404,0.0439,0.0516,0.0521,0.0597,0.0602,0.0632,0.0691,0.0599,0.0624,0.0439,0.0351,0.0196,0.0049,0.0058,-0.0096,-0.0127,-0.0088,-0.0085,-0.0227,-0.032,-0.011,-0.011,-0.0109,-0.0109,0,0.0354,0.0383,0.0465,0.0521,0.0545,0.06,0.0686,0.0743,0.0751,0.0825,0.0823,0.0769,0.0663,0.0469,0.028,0.0131,-0.0105,-0.009,-0.0026,-0.0049,-0.0259,-0.0349,-0.0504,-0.0562,-0.0194,-0.0194,-0.0195,0,0.0391,0.0438,0.0528,0.0585,0.0615,0.0698,0.0761,0.0803,0.0881,0.0923,0.0972,0.0891,0.0873,0.0601,0.0324,0.0064,-0.0099,-0.009,-0.0132,-0.0253,-0.0377,-0.0449,-0.0491,-0.0102,-0.0102,-0.0101,-0.0101,0,0.0461,0.0487,0.0553,0.0668,0.0747,0.0851,0.0946,0.1028,0.1083,0.115,0.1228,0.1214,0.0965,0.0743,0.0375,0.0181,-0.0174,-0.0091,-0.0234,-0.0323,-0.039,-0.0464,-0.0087,-0.0097,-0.0098,-0.0098,-0.0098,-0.0098,0.0511,0.0568,0.0651,0.0763,0.0861,0.0988,0.1084,0.1201,0.1338,0.1449,0.1432,0.1457,0.1108,0.0635,0.0355,-0.0123,-0.0158,-0.0269,-0.0371,-0.0433,-0.0484,-0.0093,-0.013,-0.0131,-0.0131,-0.0132,-0.0132,0,0.0577,0.0639,0.0743,0.0873,0.0989,0.1028,0.1199,0.1305,0.1479,0.1596,0.1675,0.1545,0.1124,0.0657,0.0013,-0.0328,-0.0463,-0.0526,-0.0618,-0.065,-0.0308,-0.0297,-0.0349,-0.0349,-0.0349,-0.0349,-0.0348,-0.0348,0.0614,0.0716,0.0766,0.0957,0.105,0.1205,0.1306,0.147,0.1599,0.1763,0.181,0.1814,0.1462,0.0328,-0.0422,-0.0598,-0.0849,-0.0913,-0.1049,-0.0815,-0.0798,-0.0783,-0.0793,-0.0949,-0.0949,-0.1317,-0.1321,-0.1324]}],[{"header":{"parameterUnit":"m.s-1","parameterCategory":2,"la1":30.2991,"la2":30.254,"lo1":-89.0895,"lo2":-89.0444,"dy":0.0017,"dx":0.0017,"nx":28,"ny":28,"refTime":"2024-10-19T03:00:00:Z","depth":"2","parameterNumber":2,"parameterNumberName":"U-component_of_CURRENTS"},"data":[0,0,0,0,0,0,0,0,0,0,0,0,0,0,0,0,0,0,0,0,0,0,0,0,0,0,0,0,0,0,0,0,0,0,0,0,0,0,0,0,0,0,0,0,0,0,0,0,0,0,0,0,0,0,0,0,0,0,0.2857,0.2857,0,0.2865,0.2865,0.2865,0.2859,0.2859,0.2859,0.2859,0.2864,0.2864,0.2864,0,0,0,0,0,0,0,0,0,0,0,0,0,0.2822,0.2823,0.2856,0.2857,0.2857,0.2865,0.2865,0.2865,0.2859,0.2859,0.2859,0.2859,0.2864,0.2864,0.2864,0,0,0,0,0,0,0,0,0,0,0,0,0,0.2833,0.2823,0.2856,0.2857,0.2857,0.2865,0.2865,0.2865,0.2859,0.2859,0.2859,0.2859,0.2864,0.2864,0.2864,0.2869,0,0,0.2865,0.2866,0,0,0,0,0,0,0,0,0.2832,0.2834,0.2856,0.2857,0.2857,0.2863,0.2855,0.2867,0.2859,0.2856,0.2859,0.2859,0.2865,0.2865,0.2864,0.2869,0.2869,0.2865,0.2866,0.2866,0.2866,0,0,0,0,0,0,0,0.2831,0.2833,0.2858,0.2857,0.2857,0.2852,0.2853,0.2857,0.2859,0.2856,0.2856,0.2861,0.2865,0.2864,0.2864,0.287,0.2865,0.2866,0.2866,0.2866,0.2931,0.2932,0,0,0,0,0,0,0.2836,0.2833,0.2858,0.2858,0.2846,0.2853,0.2854,0.2859,0.2859,0.286,0.2861,0.286,0.2863,0.2864,0.2864,0.2909,0.2866,0.2866,0.2866,0.2929,0.2931,0.2933,0,0,0,0,0,0,0.2835,0.2838,0.2857,0.2847,0.285,0.2854,0.286,0.286,0.2871,0.2863,0.2863,0.2874,0.2863,0.2864,0.2883,0.2908,0.2866,0.2867,0.2928,0.293,0.2932,0.2974,0,0,0,0,0,0,0.2834,0.2837,0.2848,0.2848,0.2851,0.2874,0.286,0.286,0.2874,0.2874,0.2874,0.2874,0.2863,0.2883,0.2884,0.2908,0.2867,0.2926,0.2929,0.2931,0.2971,0.2977,0.2983,0,0,0,0,0,0.2832,0.2844,0.2848,0.2852,0.2863,0.2875,0.2876,0.2877,0.2875,0.2886,0.2888,0.2875,0.2902,0.2884,0.2885,0.2909,0.2924,0.2928,0.2931,0.2968,0.2976,0.2983,0,0,0,0,0,0,0.2832,0.2844,0.2849,0.2864,0.2876,0.2875,0.2886,0.2887,0.2897,0.2901,0.2889,0.289,0.292,0.2911,0.2892,0.2939,0.2913,0.2917,0.2941,0.2949,0.2955,0.297,0.2867,0,0,0,0,0,0.2839,0.2853,0.2862,0.2877,0.2885,0.2889,0.2897,0.29,0.2907,0.2911,0.2911,0.2918,0.2933,0.2937,0.2947,0.2967,0.2977,0.2986,0.2993,0.2998,0.3013,0.3048,0.3059,0.2944,0.2944,0.2944,0,0,0.2841,0.2852,0.2859,0.2879,0.2887,0.2902,0.2893,0.2913,0.2929,0.2911,0.2934,0.2941,0.2945,0.2971,0.2984,0.2966,0.3037,0.3002,0.3006,0.3019,0.3053,0.3064,0.3074,0.2946,0.2946,0.2946,0,0,0.285,0.2866,0.2879,0.2894,0.2917,0.2923,0.2933,0.2944,0.2955,0.2977,0.2976,0.3002,0.301,0.3024,0.303,0.3079,0.3073,0.3082,0.312,0.3154,0.3164,0.3172,0.3202,0.3213,0.308,0.308,0.308,0,0.2855,0.287,0.2885,0.2904,0.2918,0.2935,0.295,0.2968,0.2985,0.3,0.2992,0.3036,0.3038,0.308,0.3099,0.3093,0.311,0.3086,0.3162,0.3171,0.3179,0.3207,0.3218,0.3082,0.3082,0.3082,0.3081,0,0.2867,0.2887,0.2898,0.2927,0.2947,0.2966,0.2991,0.3015,0.3029,0.3043,0.3091,0.3103,0.3128,0.3137,0.3132,0.3195,0.3188,0.3168,0.314,0.3193,0.3219,0.323,0.3086,0.3085,0.3084,0.3083,0,0,0.2852,0.2897,0.2901,0.2915,0.296,0.2971,0.3015,0.305,0.3087,0.3109,0.3154,0.3188,0.3201,0.3212,0.3218,0.3252,0.3322,0.3239,0.3239,0.3264,0.3402,0.3344,0.3351,0.3313,0.3316,0.3317,0.3398,0,0.2855,0.2885,0.2912,0.2942,0.2956,0.2995,0.3034,0.3075,0.3117,0.3169,0.3199,0.3249,0.3228,0.3257,0.3285,0.3322,0.3354,0.3302,0.3352,0.3353,0.3292,0.3363,0.3093,0.3137,0.3408,0.341,0.3412,0,0.2848,0.2871,0.2898,0.2946,0.2958,0.2985,0.3053,0.3095,0.3179,0.322,0.3276,0.3306,0.3372,0.3345,0.3424,0.3393,0.3406,0.3424,0.3426,0.3367,0.3317,0.3129,0.3147,0.343,0.3428,0.3427,0.3426,0,0.2807,0.2856,0.2874,0.2891,0.2953,0.2979,0.3021,0.3106,0.3157,0.3267,0.3316,0.3389,0.3437,0.3471,0.3502,0.3474,0.3585,0.3542,0.3501,0.3496,0.3275,0.3247,0.3598,0.3597,0.3597,0.3597,0.3597,0,0.2785,0.2797,0.2858,0.2865,0.2901,0.2959,0.3019,0.3085,0.3193,0.3253,0.3339,0.34,0.3474,0.3533,0.3543,0.3564,0.3613,0.3532,0.3522,0.3282,0.3256,0.351,0.3499,0.36,0.3599,0.3599,0.3598,0,0.2726,0.2767,0.2789,0.2855,0.2879,0.2905,0.3007,0.3053,0.3172,0.326,0.33,0.3434,0.3517,0.3574,0.3652,0.3614,0.3644,0.3633,0.3351,0.3307,0.3522,0.3512,0.3601,0.36,0.3599,0.3598,0.3597,0,0.2693,0.2701,0.2766,0.278,0.2808,0.2863,0.2901,0.3028,0.3085,0.326,0.3289,0.3427,0.3488,0.3596,0.3581,0.3604,0.3648,0.3347,0.3243,0.3546,0.3527,0.3519,0.351,0.2965,0.2959,0.2954,0.2951,0,0.263,0.2661,0.268,0.2713,0.2746,0.2782,0.2849,0.289,0.3033,0.311,0.3214,0.3293,0.3419,0.3333,0.3387,0.3354,0.3324,0.3252,0.3646,0.3011,0.2954,0.2933,0.2944,0.2908,0.2913,0.2916,0.2918,0.292,0.2579,0.2577,0.2609,0.2628,0.2662,0.2673,0.2663,0.2742,0.2802,0.2879,0.3034,0.3052,0.3119,0.3069,0.2989,0.2925,0.315,0.2985,0.2996,0.3013,0.2931,0.2875,0.2799,0.2803,0.2806,0.2808,0.2811,0,0.2497,0.2505,0.2519,0.2524,0.2504,0.257,0.2599,0.2562,0.2562,0.2671,0.2734,0.2555,0.2528,0.2586,0.2437,0.2454,0.2397,0.2339,0.2225,0.2272,0.2312,0.2189,0.1863,0.186,0.1857,0.1854,0,0,0.2455,0.2425,0.2426,0.2358,0.2363,0.2299,0.2284,0.2257,0.2288,0.2252,0.224,0.2429,0.253,0.2156,0.2123,0.1961,0.2092,0.1888,0.2658,0.2572,0.2608,0.2709,0.2576,0,0,0,0,0]},{"header":{"parameterUnit":"m.s-1","parameterCategory":2,"la1":30.2991,"la2":30.254,"lo1":-89.0895,"lo2":-89.0444,"dy":0.0017,"dx":0.0017,"nx":28,"ny":28,"refTime":"2024-10-19T03:00:00:Z","depth":"2","parameterNumber":3,"parameterNumberName":"V-component_of_CURRENTS"},"data":[0,0,0,0,0,0,0,0,0,0,0,0,0,0,0,0,0,0,0,0,0,0,0,0,0,0,0,0,0,0,0,0,0,0,0,0,0,0,0,0,0,0,0,0,0,0,0,0,0,0,0,0,0,0,0,0,0,0,0.0231,0.023,0,0.0165,0.0164,0.0163,0.0117,0.0117,0.0116,0.0116,0.0033,0.0031,0.0029,0,0,0,0,0,0,0,0,0,0,0,0,0,0.0259,0.0259,0.0231,0.023,0.023,0.0165,0.0164,0.0163,0.0117,0.0117,0.0116,0.0116,0.0034,0.0031,0.0029,0,0,0,0,0,0,0,0,0,0,0,0,0,0.0224,0.0259,0.0231,0.02,0.0197,0.0165,0.0164,0.0163,0.0117,0.0117,0.0116,0.0116,0.0035,0.0032,0.0029,0.0016,0,0,0.0019,0.0018,0,0,0,0,0,0,0,0,0.0226,0.0223,0.0205,0.0202,0.0199,0.015,0.0144,0.0113,0.0117,0.0145,0.0116,0.0116,0.0072,0.0066,0.0052,0.0012,0.0008,0.0019,0.0017,0.0016,0.0015,0,0,0,0,0,0,0,0.0229,0.0225,0.0203,0.0205,0.0201,0.017,0.0165,0.0137,0.011,0.0143,0.014,0.0135,0.007,0.0055,0.005,0.0007,0.0019,0.0017,0.0015,0.0013,-0.0044,-0.0044,0,0,0,0,0,0,0.0244,0.0228,0.0205,0.0201,0.0214,0.017,0.0164,0.0165,0.011,0.0102,0.0136,0.0134,0.006,0.0053,0.0047,0.0042,0.0016,0.0013,0.0011,-0.0044,-0.0044,-0.0044,0,0,0,0,0,0,0.0245,0.0243,0.0208,0.0214,0.0208,0.0171,0.0171,0.0164,0.015,0.0105,0.0097,0.0131,0.006,0.0051,0.0028,0.0038,0.0012,0.0009,-0.0045,-0.0044,-0.0044,0.0024,0,0,0,0,0,0,0.0246,0.0243,0.0246,0.0215,0.0208,0.0197,0.0171,0.0163,0.0149,0.0145,0.0098,0.009,0.0059,0.0033,0.0025,0.0033,0.0007,-0.0045,-0.0044,-0.0044,0.0021,0.0026,0.0031,0,0,0,0,0,0.0247,0.0256,0.0246,0.0244,0.0214,0.0197,0.0191,0.0161,0.0149,0.0147,0.0116,0.0091,0.0031,0.0031,0.0021,0.0029,-0.0045,-0.0045,-0.0044,0.0019,0.0025,0.0031,0,0,0,0,0,0,0.0266,0.0251,0.024,0.0243,0.0225,0.019,0.0185,0.0167,0.014,0.0138,0.0094,0.0084,0.0066,0.0038,0.004,0.0014,-0.0011,-0.0012,0.004,0.0045,0.005,0.0069,0.0004,0,0,0,0,0,0.0274,0.0277,0.0255,0.0256,0.0251,0.0219,0.0208,0.0192,0.0166,0.0153,0.0121,0.0087,0.0061,0.0047,0.0017,0.0005,-0.0024,0.0003,0.0008,0.0013,0.0021,-0.0013,-0.001,-0.0041,-0.0041,-0.0041,0,0,0.028,0.0273,0.0274,0.0261,0.0243,0.0246,0.0212,0.0203,0.0204,0.0149,0.0138,0.0102,0.0061,0.0046,0.0036,0.0025,0.0006,0.0013,0.0018,0.0024,-0.0012,-0.0009,-0.0006,-0.0041,-0.0041,-0.0041,0,0,0.0302,0.0292,0.0304,0.0295,0.028,0.0265,0.0267,0.0239,0.0225,0.0209,0.0173,0.0147,0.0102,0.0079,0.0061,0.0075,0.0032,0.0063,0.0105,0.0072,0.0074,0.0076,0.0045,0.0044,0.0067,0.0068,0.0068,0,0.0311,0.0325,0.0303,0.0313,0.0315,0.0281,0.0298,0.0278,0.0245,0.0241,0.0215,0.0157,0.012,0.0108,0.0111,0.0088,0.0061,0.0088,0.0079,0.008,0.0081,0.0049,0.0046,0.0071,0.0071,0.007,0.007,0,0.0343,0.0353,0.036,0.0367,0.0364,0.0372,0.0352,0.0345,0.0323,0.0303,0.028,0.0224,0.0194,0.0174,0.0145,0.0137,0.0113,0.0089,0.0068,0.0088,0.0053,0.0049,0.0076,0.0075,0.0074,0.0073,0,0,0.037,0.0383,0.0385,0.0403,0.0397,0.0403,0.0408,0.0408,0.0421,0.0371,0.0376,0.0318,0.0287,0.0264,0.022,0.0187,0.0165,0.0146,0.0142,0.0123,0.0092,0.008,0.0074,0.0138,0.0137,0.0137,0.0066,0,0.0404,0.0443,0.0438,0.0477,0.0499,0.0479,0.049,0.0483,0.0467,0.0462,0.04,0.0384,0.0322,0.0309,0.0267,0.0194,0.0158,0.0187,0.0069,0.0066,0.0058,0.007,0.0098,0.0038,0.0062,0.0062,0.0061,0,0.0441,0.0465,0.0511,0.0545,0.0553,0.0567,0.0592,0.0601,0.0583,0.057,0.0538,0.0486,0.0436,0.0376,0.0261,0.0281,0.0196,0.0129,0.0124,0.0088,0.0046,0.0019,0.0029,0.0054,0.0055,0.0055,0.0056,0,0.0481,0.052,0.0563,0.0572,0.0599,0.0615,0.0631,0.0632,0.0663,0.0642,0.0654,0.0574,0.0545,0.0426,0.0286,0.0273,0.0154,0.0117,0.0023,0.002,0.001,0.0007,0.0032,0.0032,0.0032,0.0033,0.0033,0,0.0525,0.0559,0.0585,0.0606,0.0667,0.0665,0.0728,0.073,0.0752,0.0799,0.0715,0.0729,0.0556,0.0463,0.032,0.0168,0.0177,0.0036,0.0004,0.0034,0.0035,0.002,0.0019,0.003,0.0031,0.0031,0.0032,0,0.056,0.0574,0.063,0.0668,0.0687,0.0732,0.0806,0.0856,0.0858,0.0916,0.0913,0.085,0.0735,0.0552,0.0366,0.0228,0.0072,0.0011,0.006,0.0035,-0.005,-0.0047,-0.0099,-0.01,-0.0101,-0.0101,-0.0102,0,0.0582,0.0612,0.068,0.0724,0.0744,0.0814,0.0871,0.0908,0.0974,0.0997,0.1034,0.0941,0.0901,0.0625,0.037,0.012,0.0078,-0.0029,-0.0053,-0.0037,-0.0063,-0.0058,-0.0053,-0.0045,-0.0045,-0.0045,-0.0045,0,0.0626,0.0646,0.0694,0.0788,0.0856,0.0947,0.103,0.1099,0.1145,0.1192,0.1234,0.1199,0.0946,0.0712,0.0366,0.0194,0.0011,-0.0039,-0.0033,-0.0011,0.0009,-0.0014,-0.0011,-0.0046,-0.0046,-0.0046,-0.0046,-0.0046,0.0659,0.0703,0.0767,0.086,0.0947,0.106,0.1144,0.1239,0.1348,0.1415,0.1384,0.1338,0.1063,0.0638,0.0335,0.0011,0.0026,-0.0096,-0.0094,-0.0093,-0.0069,-0.005,-0.0112,-0.0112,-0.0113,-0.0113,-0.0113,0,0.0702,0.0752,0.0838,0.0947,0.105,0.109,0.1239,0.1322,0.1452,0.1509,0.1541,0.1282,0.1019,0.0689,0.022,-0.0059,-0.0084,-0.0157,-0.0123,-0.012,-0.0118,-0.0094,-0.0146,-0.0147,-0.0148,-0.0148,0,0,0.0724,0.0805,0.0849,0.1011,0.1093,0.1232,0.1321,0.1439,0.1516,0.1578,0.1557,0.1512,0.1119,0.0774,0.0396,0.0122,0.006,0.0063,0.0122,0.021,0.0215,-0.0048,-0.0004,0,0,0,0,0]}],[{"header":{"parameterUnit":"m.s-1","parameterCategory":2,"la1":30.2991,"la2":30.254,"lo1":-89.0895,"lo2":-89.0444,"dy":0.0017,"dx":0.0017,"nx":28,"ny":28,"refTime":"2024-10-19T03:00:00:Z","depth":"4","parameterNumber":2,"parameterNumberName":"U-component_of_CURRENTS"},"data":[0,0,0,0,0,0,0,0,0,0,0,0,0,0,0,0,0,0,0,0,0,0,0,0,0,0,0,0,0,0,0,0,0,0,0,0,0,0,0,0,0,0,0,0,0,0,0,0,0,0,0,0,0,0,0,0,0,0,0.1825,0.1826,0,0.189,0.1891,0.1892,0.1944,0.1945,0.1945,0.1946,0.2018,0.2019,0.202,0,0,0,0,0,0,0,0,0,0,0,0,0,0.171,0.1712,0.1825,0.1826,0.1827,0.189,0.1891,0.1892,0.1944,0.1945,0.1946,0.1946,0.2017,0.2019,0.202,0,0,0,0,0,0,0,0,0,0,0,0,0,0.1764,0.1713,0.1824,0.1862,0.1866,0.189,0.1891,0.1892,0.1944,0.1945,0.1946,0.1947,0.2017,0.2019,0.202,0.2009,0,0,0.2026,0.2027,0,0,0,0,0,0,0,0,0.1761,0.1768,0.1856,0.186,0.1865,0.1912,0.1877,0.1932,0.1943,0.1912,0.1946,0.1947,0.1984,0.1988,0.1995,0.2012,0.2015,0.2026,0.2027,0.2028,0.2028,0,0,0,0,0,0,0,0.1757,0.1765,0.1848,0.1857,0.1862,0.1865,0.1873,0.1887,0.1939,0.1914,0.1919,0.193,0.1986,0.1993,0.1997,0.2016,0.2026,0.2028,0.2029,0.2029,0.2149,0.2151,0,0,0,0,0,0,0.1755,0.1762,0.1846,0.185,0.1817,0.1866,0.1876,0.1894,0.1939,0.1947,0.1929,0.1932,0.1989,0.1994,0.1999,0.2092,0.2028,0.2029,0.2031,0.2147,0.2149,0.2151,0,0,0,0,0,0,0.1752,0.1762,0.1843,0.1809,0.182,0.1867,0.1887,0.1895,0.1943,0.195,0.1958,0.1974,0.199,0.1997,0.2051,0.2092,0.203,0.2032,0.2144,0.2147,0.215,0.2211,0,0,0,0,0,0,0.1749,0.1761,0.1791,0.1809,0.1822,0.1884,0.1886,0.1895,0.1946,0.1952,0.1991,0.1996,0.1991,0.2049,0.2053,0.2093,0.2033,0.2141,0.2146,0.2149,0.2207,0.2216,0.2224,0,0,0,0,0,0.1745,0.1772,0.1792,0.1803,0.1856,0.1885,0.1893,0.1927,0.1948,0.1974,0.2006,0.1997,0.2077,0.2052,0.2056,0.2098,0.214,0.2144,0.2149,0.2203,0.2214,0.2224,0,0,0,0,0,0,0.1735,0.1781,0.1803,0.1844,0.1877,0.1896,0.193,0.195,0.1995,0.2015,0.202,0.2027,0.2091,0.2088,0.206,0.2145,0.2108,0.2114,0.2148,0.2159,0.2167,0.2173,0.2035,0,0,0,0,0,0.1747,0.1787,0.1821,0.1859,0.1881,0.1914,0.1939,0.1963,0.1996,0.2019,0.2045,0.2077,0.2106,0.2129,0.2151,0.2194,0.2196,0.2227,0.2236,0.2243,0.2253,0.2289,0.2301,0.2167,0.2167,0.2167,0,0,0.1751,0.1786,0.1808,0.1861,0.1893,0.1927,0.1933,0.1984,0.202,0.2018,0.2089,0.2112,0.2126,0.2178,0.2206,0.2185,0.2285,0.2249,0.2255,0.2261,0.2295,0.2308,0.2319,0.217,0.2169,0.2169,0,0,0.1768,0.1816,0.1852,0.1886,0.1947,0.1965,0.199,0.2036,0.2072,0.213,0.2143,0.2194,0.2236,0.2256,0.2268,0.234,0.2331,0.2355,0.2403,0.2438,0.2449,0.2459,0.2482,0.2493,0.2357,0.2357,0.2357,0,0.1777,0.1825,0.1866,0.1909,0.1942,0.1988,0.2025,0.2064,0.2124,0.2155,0.2166,0.2255,0.2271,0.2328,0.2359,0.236,0.2376,0.2357,0.2448,0.2458,0.2467,0.2488,0.25,0.2361,0.236,0.236,0.236,0,0.1806,0.1861,0.1887,0.1957,0.1996,0.2041,0.2091,0.2145,0.2194,0.2225,0.2311,0.2341,0.239,0.2409,0.2408,0.2485,0.2475,0.2454,0.2417,0.2484,0.2502,0.2513,0.2366,0.2365,0.2364,0.2363,0,0,0.1781,0.1888,0.1902,0.1943,0.2029,0.2057,0.2131,0.2196,0.2254,0.2319,0.2387,0.2449,0.2478,0.2496,0.2511,0.2548,0.2627,0.2539,0.2539,0.2554,0.2708,0.2535,0.253,0.2626,0.2629,0.263,0.2696,0,0.1796,0.1875,0.1927,0.2003,0.2044,0.2111,0.2172,0.2241,0.231,0.2388,0.2439,0.2515,0.2507,0.2553,0.2589,0.2624,0.2659,0.2611,0.2648,0.2649,0.248,0.2538,0.2638,0.2704,0.2707,0.2709,0.271,0,0.1802,0.1859,0.1935,0.2031,0.2057,0.2113,0.222,0.2283,0.2393,0.2453,0.2533,0.2578,0.2662,0.2644,0.2729,0.2703,0.2717,0.2732,0.2734,0.2557,0.2495,0.2624,0.2729,0.2728,0.2726,0.2725,0.2724,0,0.175,0.1858,0.1921,0.1956,0.2072,0.2127,0.2195,0.2308,0.2373,0.2511,0.2573,0.2665,0.2729,0.2769,0.2803,0.2783,0.288,0.2846,0.27,0.2688,0.2796,0.2785,0.2901,0.2901,0.2901,0.2901,0.29,0,0.1728,0.1782,0.1912,0.1946,0.2026,0.2116,0.2215,0.2301,0.2429,0.2498,0.2609,0.2667,0.2769,0.2825,0.2838,0.2798,0.2906,0.2717,0.2694,0.2821,0.2812,0.2804,0.2792,0.2903,0.2902,0.2902,0.2902,0,0.166,0.1747,0.1826,0.196,0.2007,0.2068,0.2218,0.2279,0.242,0.2517,0.2567,0.2701,0.2767,0.2836,0.2909,0.2823,0.2819,0.2778,0.2923,0.2906,0.2595,0.2586,0.2613,0.2607,0.2602,0.2598,0.2595,0,0.1628,0.1667,0.182,0.1867,0.1938,0.2044,0.2108,0.2263,0.2321,0.2503,0.2524,0.2655,0.2718,0.2676,0.2767,0.2775,0.2741,0.2717,0.2639,0.2591,0.2568,0.2566,0.2563,0.2588,0.2586,0.2585,0.2584,0,0.1565,0.1639,0.1703,0.1802,0.1883,0.1954,0.2059,0.2086,0.2244,0.2391,0.2421,0.2454,0.252,0.2561,0.2591,0.259,0.2719,0.2667,0.2676,0.2602,0.2561,0.2542,0.2545,0.2568,0.257,0.2571,0.2572,0,0.1521,0.1546,0.1641,0.171,0.1803,0.1828,0.1899,0.1953,0.2028,0.2216,0.2222,0.2354,0.2488,0.2466,0.2494,0.2482,0.2436,0.2343,0.2368,0.2387,0.2281,0.2194,0.2074,0,0,0,0,0,0.1465,0.1479,0.1537,0.1596,0.1677,0.173,0.1844,0.1913,0.2061,0.2023,0.2115,0.2163,0.2196,0.2272,0.2213,0.2402,0.2453,0.2322,0.2361,0.2477,0.2496,0.2392,0,0,0,0,0,0,0.1426,0.148,0.1496,0.1484,0.15,0.1567,0.1633,0.1734,0.1718,0.1878,0.1908,0.203,0.2101,0.2207,0.2172,0.2194,0.2172,0.2414,0.2408,0.2467,0.2484,0.2499,0.2398,0,0,0,0,0]},{"header":{"parameterUnit":"m.s-1","parameterCategory":2,"la1":30.2991,"la2":30.254,"lo1":-89.0895,"lo2":-89.0444,"dy":0.0017,"dx":0.0017,"nx":28,"ny":28,"refTime":"2024-10-19T03:00:00:Z","depth":"4","parameterNumber":3,"parameterNumberName":"V-component_of_CURRENTS"},"data":[0,0,0,0,0,0,0,0,0,0,0,0,0,0,0,0,0,0,0,0,0,0,0,0,0,0,0,0,0,0,0,0,0,0,0,0,0,0,0,0,0,0,0,0,0,0,0,0,0,0,0,0,0,0,0,0,0,0,0.0242,0.0242,0,0.0197,0.0197,0.0196,0.0167,0.0167,0.0166,0.0166,0.0109,0.0108,0.0106,0,0,0,0,0,0,0,0,0,0,0,0,0,0.0261,0.0261,0.0243,0.0242,0.0242,0.0198,0.0197,0.0196,0.0167,0.0167,0.0166,0.0166,0.011,0.0108,0.0106,0,0,0,0,0,0,0,0,0,0,0,0,0,0.0238,0.0261,0.0243,0.0222,0.022,0.0198,0.0197,0.0196,0.0167,0.0167,0.0166,0.0166,0.011,0.0108,0.0106,0.0096,0,0,0.01,0.0099,0,0,0,0,0,0,0,0,0.0239,0.0237,0.0226,0.0224,0.0221,0.0188,0.0182,0.0162,0.0167,0.0186,0.0166,0.0166,0.0135,0.0131,0.0122,0.0093,0.0091,0.0099,0.0098,0.0097,0.0097,0,0,0,0,0,0,0,0.0241,0.0238,0.0224,0.0225,0.0223,0.0201,0.0198,0.0178,0.0161,0.0184,0.0182,0.0179,0.0134,0.0124,0.012,0.009,0.0099,0.0097,0.0096,0.0095,0.0059,0.0059,0,0,0,0,0,0,0.0251,0.024,0.0225,0.0222,0.0231,0.0201,0.0198,0.0198,0.0161,0.0156,0.0179,0.0178,0.0128,0.0123,0.0118,0.0121,0.0097,0.0095,0.0094,0.0058,0.0059,0.0059,0,0,0,0,0,0,0.0251,0.025,0.0227,0.0231,0.0226,0.0202,0.0202,0.0197,0.0192,0.0158,0.0152,0.0179,0.0127,0.0121,0.0108,0.0118,0.0094,0.0092,0.0058,0.0058,0.0059,0.0117,0,0,0,0,0,0,0.0252,0.0251,0.0255,0.0232,0.0227,0.0221,0.0202,0.0197,0.019,0.0188,0.0156,0.015,0.0127,0.0111,0.0106,0.0115,0.0091,0.0057,0.0058,0.0059,0.0115,0.0119,0.0123,0,0,0,0,0,0.0253,0.0262,0.0256,0.0254,0.0234,0.0222,0.0217,0.0198,0.0191,0.0191,0.0171,0.0151,0.0111,0.011,0.0103,0.0112,0.0057,0.0058,0.0059,0.0113,0.0118,0.0123,0,0,0,0,0,0,0.0271,0.0259,0.0252,0.0256,0.0244,0.0217,0.0217,0.0204,0.0188,0.0188,0.0155,0.0148,0.0139,0.0118,0.0117,0.0103,0.0081,0.008,0.0124,0.0129,0.0133,0.0147,0.0089,0,0,0,0,0,0.0279,0.0283,0.0265,0.0269,0.0266,0.0243,0.0236,0.0225,0.0207,0.0199,0.0177,0.0154,0.0136,0.0127,0.0106,0.0099,0.0072,0.01,0.0104,0.0108,0.0114,0.0082,0.0084,0.0061,0.0061,0.0061,0,0,0.0287,0.0281,0.0283,0.0273,0.0262,0.0265,0.0239,0.0235,0.0237,0.0196,0.0194,0.0168,0.0137,0.013,0.0124,0.0114,0.01,0.0109,0.0113,0.0117,0.0083,0.0085,0.0087,0.0062,0.0062,0.0062,0,0,0.0305,0.0301,0.0311,0.0305,0.0295,0.0284,0.0287,0.0266,0.0258,0.025,0.0223,0.0207,0.0177,0.016,0.0146,0.0162,0.0123,0.0154,0.0188,0.0157,0.0158,0.016,0.0128,0.0125,0.0158,0.0158,0.0158,0,0.0316,0.0327,0.0311,0.0318,0.0321,0.0297,0.0311,0.0299,0.0277,0.0276,0.0258,0.0218,0.0192,0.0184,0.019,0.0173,0.0147,0.0173,0.0163,0.0164,0.0164,0.0131,0.0127,0.0161,0.016,0.016,0.016,0,0.0339,0.035,0.0356,0.0362,0.0362,0.037,0.0356,0.0355,0.0342,0.0328,0.0315,0.0275,0.0254,0.0241,0.022,0.0213,0.0191,0.0172,0.0152,0.017,0.0133,0.0129,0.0165,0.0164,0.0163,0.0162,0,0,0.0359,0.0372,0.0374,0.039,0.0389,0.0394,0.0403,0.0405,0.0418,0.0384,0.039,0.0352,0.0329,0.0312,0.028,0.0251,0.0229,0.0218,0.0215,0.0191,0.0157,0.0141,0.0134,0.0207,0.0207,0.0206,0.0132,0,0.0384,0.0413,0.0412,0.0446,0.0462,0.0453,0.0466,0.0465,0.0456,0.0455,0.041,0.0401,0.0357,0.035,0.0314,0.0253,0.022,0.0251,0.014,0.0137,0.0124,0.013,0.0205,0.0128,0.0127,0.0127,0.0126,0,0.0406,0.0426,0.0463,0.0496,0.0503,0.0521,0.0546,0.0557,0.0547,0.054,0.0518,0.048,0.044,0.0396,0.0296,0.0317,0.0245,0.0189,0.0184,0.0147,0.0113,0.0106,0.0118,0.0118,0.0119,0.0119,0.012,0,0.0428,0.0464,0.05,0.0509,0.0538,0.0558,0.0577,0.0584,0.061,0.0599,0.0608,0.0545,0.0521,0.0422,0.0306,0.0301,0.0187,0.0163,0.0078,0.0075,0.0086,0.0086,0.0088,0.0088,0.0088,0.0089,0.0089,0,0.0452,0.0482,0.0516,0.0534,0.0589,0.0595,0.0652,0.0658,0.068,0.0715,0.0658,0.0659,0.0526,0.0443,0.0327,0.0192,0.02,0.0085,0.0056,0.0112,0.0115,0.0083,0.0083,0.0086,0.0086,0.0087,0.0087,0,0.0465,0.0485,0.0534,0.0578,0.06,0.064,0.0713,0.0753,0.0764,0.0805,0.0805,0.0747,0.0639,0.0495,0.0335,0.0228,0.0095,0.0043,0.0118,0.0094,-0.0003,0.0001,-0.0059,-0.006,-0.0061,-0.0062,-0.0062,0,0.0472,0.0497,0.0569,0.0609,0.0634,0.0701,0.0753,0.0794,0.084,0.0856,0.0874,0.0792,0.0728,0.0499,0.034,0.0114,0.0076,-0.0001,-0.0009,0.0005,-0.0018,-0.0012,-0.0006,-0.0064,-0.0064,-0.0065,-0.0065,0,0.0486,0.0515,0.0557,0.0643,0.0707,0.0786,0.0858,0.0898,0.094,0.0952,0.093,0.0811,0.0689,0.0505,0.0329,0.0166,0.0044,-0.0013,-0.0012,-0.002,-0.0003,-0.0022,-0.0016,-0.0068,-0.0068,-0.0067,-0.0067,0,0.0501,0.0533,0.0595,0.0672,0.0759,0.084,0.0881,0.093,0.0975,0.0983,0.0973,0.0842,0.0768,0.0531,0.0373,0.0209,0.0159,0.0089,0.0083,0.0085,0.0143,0.0187,0.0158,0,0,0,0,0,0.0511,0.055,0.062,0.0705,0.0795,0.0848,0.0939,0.0972,0.101,0.1,0.0989,0.0874,0.0642,0.0553,0.0386,0.0339,0.0122,0.0135,0.0037,-0.0087,-0.0083,-0.0042,0,0,0,0,0,0,0.0516,0.0579,0.0615,0.0722,0.0784,0.0887,0.0947,0.0974,0.0971,0.098,0.087,0.0812,0.0599,0.0736,0.0377,0.0329,0.0238,0.0034,0.0029,-0.0089,-0.0086,-0.0083,-0.0039,0,0,0,0,0]}]]